Regional Weather Roundup
Issued by NWS Mt. Holly, NJ

Home | Current Version | Previous Version | Text Only | Print | Product List | Glossary On
Versions: 1 2 3 4 5 6 7 8 9 10 11 12 13 14 15 16 17 18 19 20 21 22 23 24 25 26 27 28 29 30 31 32 33 34 35 36 37 38 39 40 41 42 43 44 45 46 47 48 49 50
390
ASUS41 KPHI 160612
RWRPHI

REGIONAL WEATHER ROUNDUP
NATIONAL WEATHER SERVICE MOUNT HOLLY NJ
200 AM EDT SUN MAY 16 2021

NOTE:  "FAIR" INDICATES FEW OR NO CLOUDS BELOW 12,000 FEET WITH NO
SIGNIFICANT WEATHER AND/OR OBSTRUCTIONS TO VISIBILITY.

 * = STATION DOES NOT REPORT PRECIPITATION (E.G. RAIN, SNOW, ETC.)
        OR FOG.

NJZ015>026-160700-
SOUTHERN NEW JERSEY

CITY           SKY/WX    TMP DP  RH WIND       PRES   REMARKS
POMONA         CLEAR     44  38  79 NW3       30.25S
6HR MIN TEMP:  42; 6HR MAX TEMP:  62;

WILDWOOD*      CLEAR     48  46  93 CALM      30.26S
MILLVILLE      CLEAR     43  39  86 CALM      30.25S
WRIGHTSTOWN    MOCLDY    45  39  81 CALM      30.24R
MOUNT HOLLY    PTCLDY    47  42  83 CALM      30.25R
TRENTON        MOCLDY    57  39  51 W5        30.24S
6HR MIN TEMP:  56; 6HR MAX TEMP:  66;


$$
NJZ001>014-160700-
NORTHERN NEW JERSEY

CITY           SKY/WX    TMP DP  RH WIND       PRES   REMARKS
SUSSEX         MOCLDY    50  47  89 W3        30.24R
ANDOVER*         N/A     50  47  89 CALM      30.24R
MORRISTOWN     MOCLDY    52  48  87 CALM      30.23S
NEWARK         CLOUDY    63  39  41 SW8       30.22S
TETERBORO      MOCLDY    61  44  53 S6        30.22R
CALDWELL       MOCLDY    60  44  55 CALM      30.23S
SOMERVILLE     MOCLDY    49  46  90 CALM      30.22S
ALLAIRE*       PTCLDY    53  33  46 SW6       30.25S
TOMS RIVER*    CLEAR     41  33  73 CALM      30.25S

$$
PAZ043-044-047-054-055-060>062-066>071-160700-
EASTERN PENNSYLVANIA

CITY           SKY/WX    TMP DP  RH WIND       PRES   REMARKS
PHILADELPHIA   MOCLDY    57  42  57 SW8       30.25S
6HR MIN TEMP:  56; 6HR MAX TEMP:  67;

NORTH PHILA    PTCLDY    57  40  52 W8        30.26R
BLUE BELL*     MOCLDY    55  40  57 SW3       30.26R
DOYLESTOWN     MOCLDY    57  36  45 VRB3      30.24S
QUAKERTOWN*    CLEAR     48  46  93 CALM      30.25S
PERKASIE*      MOCLDY    50  36  57 CALM      30.26R
POTTSTOWN      MOCLDY    58  35  42 CALM      30.26S
LANCASTER      PTCLDY    57  40  52 E5        30.24S
COATESVILLE    MOCLDY    57  37  47 CALM      30.26F
WEST CHESTER   FAIR      55  39  54 CALM      30.25S
READING        MOCLDY    62  39  42 CALM      30.22S
6HR MIN TEMP:  59; 6HR MAX TEMP:  68;

ALLENTOWN      MOCLDY    53  45  74 CALM      30.24R
6HR MIN TEMP:  51; 6HR MAX TEMP:  67;

QN CITY/ALNTWN FAIR      55  41  58 CALM      30.25S
MOUNT POCONO   PTCLDY    52  37  56 W5        30.24S
6HR MIN TEMP:  49; 6HR MAX TEMP:  60;

HAZLETON       MOCLDY    54  37  54 CALM      30.27S
LEHIGHTON      FAIR      46  46 100 CALM      30.26R
WILKES BARRE   MOCLDY    55  42  61 CALM      30.23R

$$
DEZALL-MDZ008-012-015-019-020-160700-
DELAWARE AND EASTERN MARYLAND

CITY           SKY/WX    TMP DP  RH WIND       PRES   REMARKS
WILMINGTON     PTCLDY    57  36  45 CALM      30.25F
6HR MIN TEMP:  54; 6HR MAX TEMP:  65;

DOVER          CLEAR     52  39  61 CALM      30.24R
CHESWOLD         N/A     46  41  81 CALM      30.25S
GEORGETOWN     CLEAR     50  41  71 CALM      30.25S
6HR MIN TEMP:  47; 6HR MAX TEMP:  62;

EASTON         CLEAR     52  43  71 CALM      30.28F
ABERDEEN       MOCLDY    49  44  81 CALM      30.24F
PATUXENT       CLEAR     53  47  79 S3        30.24S
OCEAN CITY     CLEAR     50  47  89 CALM      30.25F
WALLOPS ISLAND CLEAR     52  46  80 CALM      30.25S
CAMBRIDGE      CLEAR     48  45  87 CALM      30.25F
SALISBURY      CLEAR     46  39  76 CALM      30.25S

$$
PAZ001-021-NYZ056-072-MDZ011-DCZ001-160700-
OTHER NEARBY LOCATIONS

CITY           SKY/WX    TMP DP  RH WIND       PRES   REMARKS
HARRISBURG     PTCLDY    56  43  61 SE7       30.22S
STATE COLLEGE  MOCLDY    55  36  47 CALM      30.22F
WILLIAMSPORT   MOCLDY    51  41  68 NW3       30.22S
BINGHAMTON     MOCLDY    55  31  39 NE3       30.24R
NEW YORK CITY  MOCLDY    63  41  44 VRB7      30.25R
BALTIMORE      MOCLDY    54  45  71 CALM      30.24S
WASHINGTON DC  MOCLDY    58  47  66 S7        30.24F

$$




USA.gov is the U.S. government's official web portal to all federal, state and local government web resources and services.